Location: Augustenthal
(51.7167°N, 10.2833°E)
Time: 14:55:31
(UTC+00:00)

ALOS 2 - Pass Details

Date: 28 September 2021
Orbit: 630 x 632 km, 97.9° (Epoch: 19 October)

Event Time Altitude Azimuth Distance (km) Brightness Sun altitude
Exits shadow 22:46:40 10° 344° (NNW) 2,007 5.8 -40.5°
Drops below altitude 10° 22:46:48 10° 345° (NNW) 2,060 5.9 -40.5°
Sets 22:48:55 0° 346° (NNW) 2,938 6.9 -40.5°
